Location: Sauerland
(51.1981°N, 7.8053°E)
Time: 23:53:00
(UTC+01:00)

ISS - Visible Passes

Search period start: 18 December 2018 00:00
Search period end: 28 December 2018 00:00
Orbit: 401 x 408 km, 51.6° (Epoch: 19 December)

Date Brightness Start Highest point End Pass type
(mag) Time Alt. Az. Time Alt. Az. Time Alt. Az.
23 Dec -1.0 07:48:02 10° SSW 07:50:39 22° SE 07:53:17 10° E visible
24 Dec -0.7 06:56:46 10° S 06:58:39 14° SE 07:00:32 10° ESE visible
25 Dec -2.2 07:39:22 10° SW 07:42:27 38° SSE 07:45:32 10° E visible
26 Dec -1.6 06:47:33 10° SSW 06:50:19 25° SSE 06:53:07 10° E visible
27 Dec -1.1 05:56:44 13° S 05:58:15 17° SE 06:00:28 10° E visible
27 Dec -3.3 07:31:01 10° WSW 07:34:17 61° SSE 07:37:32 10° E visible
